Weather Roundup
Issued by NWS Chicago, IL

Home | Current Version | Previous Version | Graphics & Text | Print | Product List | Glossary Off
Versions: 1 2 3 4 5 6 7 8 9 10 11 12 13 14 15 16 17 18 19 20 21 22 23 24 25 26 27 28 29 30 31 32 33 34 35 36 37 38 39 40 41 42 43 44 45 46 47 48 49 50

000
NZUS59 KLOT 251808
HRRLOT

CHICAGO AREA WEATHER ROUNDUP
NATIONAL WEATHER SERVICE CHICAGO/ROMEOVILLE IL
100 PM CDT MON JUL 25 2016

NOTE: "FAIR" INDICATES FEW OR NO CLOUDS BELOW 12,000 FEET WITH NO
SIGNIFICANT WEATHER AND/OR OBSTRUCTIONS TO VISIBILITY.

* THESE STATIONS ARE NOT UNDER NWS QUALITY CONTROL. THEY ALSO MAY NOT
  REPORT WEATHER SUCH AS PRECIPITATION OR FOG.

ILZ005-006-012>014-019>023-251900-
NORTHEAST ILLINOIS

CITY           SKY/WX    TMP DP  RH WIND       PRES   REMARKS
OHARE          MOSUNNY   85  61  44 NW8       30.00S HX  85
6HR MIN TEMP:  74; 6HR MAX TEMP:  86;

MIDWAY         PTSUNNY   85  64  49 SE9       30.01R HX  86
6HR MIN TEMP:  76; 6HR MAX TEMP:  86;

AURORA         MOSUNNY   84  68  58 NW7       30.04R HX  87
6HR MIN TEMP:  71; 6HR MAX TEMP:  84;

LANSING*       CLOUDY    82  63  51 E6        30.03R HX  83
JOLIET*        CLOUDY    86  68  53 N5        30.03R HX  89
WAUKEGAN       SUNNY     85  64  49 NW6       29.99S HX  86
6HR MIN TEMP:  74; 6HR MAX TEMP:  85;

DUPAGE AIRPORT SUNNY     85  62  46 W10       30.02R HX  85
6HR MIN TEMP:  74; 6HR MAX TEMP:  85;

WHEELING       SUNNY     86  60  41 NW10      30.01S HX  86
6HR MIN TEMP:  74; 6HR MAX TEMP:  86;

KANKAKEE*      PTSUNNY   84  71  65 SW6       30.04S HX  89
MORRIS*        CLOUDY    82  67  60 CALM      30.02S HX  85
LEWIS AIRPORT* CLOUDY    84  64  49 W3        30.03R HX  85
NORTHERLY ISL    N/A     78  66  66 E2          N/A  HX  80
$$

WIZ051-052-058>065-066-070>072-251900-
SOUTHEAST WISCONSIN

CITY           SKY/WX    TMP DP  RH WIND       PRES   REMARKS
MILWAUKEE      MOSUNNY   86  60  41 NW10      29.99S HX  86
6HR MIN TEMP:  75; 6HR MAX TEMP:  87;

KENOSHA*       SUNNY     84  64  50 NW13G20   30.00S HX  85
RACINE*        SUNNY     85  64  49 NE6       30.01S HX  86
BURLINGTON     SUNNY     83  65  53 NW7       30.01S HX  85
WAUKESHA       SUNNY     81  61  50 W9        30.02S HX  81
WEST BEND      MOSUNNY   81  63  54 NW13      30.01S HX  82
$$

INZ001>003-010>013-019-020-251900-
NORTHWEST INDIANA

CITY           SKY/WX    TMP DP  RH WIND       PRES   REMARKS
GARY*          PTSUNNY   82 N/A N/A N9        30.03R
MICHIGAN CITY* NOT AVBL
RENSSELAER*    NOT AVBL
VALPARAISO     PTSUNNY   83  63  50 N5        30.03S HX  84
$$

LMZ740>746-251900-
SOUTHERN LAKE MICHIGAN

STATION/POSITION TIME  SKY/WX   TEMP WIND        PRES    VSBY
                                AIR  DIR/SP/G
                 (UTC)          (F)  (DEG/KT/KT) (MB)    (MI)
HARRISON CRIB    1700            77   30/ 10/ 11   N/A
BURNHAM HARBOR   1800            78   CALM  /  4   N/A
CALUMET HARBOR   1700            77   10/  6/  9 1015.8R
BURNS HARBOR     1700            74   20/  4/  6 1016.9R
MICHIGAN CITY    1700            76  350/  6/  7   N/A
$$

ABBREVIATIONS USED IN REMARKS
   TC - TEMPERATURE IN CELSIUS
  WCI - WIND CHILL INDEX
   HX - HEAT INDEX
  VSB - VISIBILITY
$$




USA.gov is the U.S. government's official web portal to all federal, state and local government web resources and services.